Flag for Brazil Weather past 2 weeks in Boa Vista, Roraima, Brazil

Now
73 °F

Clear.


Feels Like: 70 °F
Forecast: 74 / 85 °F
Wind: 3 mph from Northeast

Location: Boa Vista Aeropor-To

Current Time: May 24, 2015 at 4:06:13 AM

Latest Report: May 24, 2015 at 3:00 AM


Visibility: 10 mi

Pressure: 29.92 "Hg

Humidity: 94%

Dew point: 72 °F

Location of Boa VistaLocation

Historic Weather in Boa Vista — Graph

°F

Boa Vista temperature yesterday

Maximum temperature yesterday: 84 °F (at 2:00 PM)
Minimum temperature yesterday: 73 °F (at 2:00 AM)
Average temperature yesterday: 76 °F

Past Weeks' High & Low Weather Summary

 TemperatureHumidityPressure
High90 °F (May 9, 3:00 PM)100% (May 18, 12:00 PM)30.09 "Hg (May 18, 12:00 PM)
Low70 °F (May 19, 10:00 AM)43% (May 9, 3:00 PM)29.74 "Hg (May 22, 9:00 AM)
Average78 °F78%29.91 "Hg
* Reported May 9 3:00 AM — May 24 3:00 AM, Boa Vista, Weather by CustomWeather, © 2015

Note: Actual official high and low records may vary slightly from our data, if they occured in-between our weather recording intervals... More about our weather records

Advertising

Boa Vista weather history for previous 24 hours

 ConditionsComfort  
Time TempWeatherWind HumidityBarometerVisibility
3:00 AM
Sun, May 24
73 °FClear.3 mph94%29.92 "Hg10 mi
2:00 AM75 °FClear.2 mph89%29.92 "Hg10 mi
1:00 AM75 °FClear.No wind89%29.92 "Hg10 mi
12:00 AM75 °FClear.No wind89%29.95 "Hg10 mi
11:00 PM
Sat, May 23
75 °FClear.2 mph89%29.95 "Hg10 mi
10:00 PM75 °FPassing clouds.2 mph89%29.95 "HgN/A
9:00 PM75 °FPassing clouds.2 mph89%29.92 "HgN/A
8:00 PM75 °FPartly cloudy.No wind89%29.92 "HgN/A
7:00 PM75 °FPassing clouds.1 mph89%29.89 "HgN/A
6:00 PM75 °FThundershowers. Broken clouds.3 mph89%29.86 "HgN/A
5:00 PM81 °FThunderstorms. Broken clouds.No wind79%29.86 "HgN/A
4:00 PM81 °FScattered showers. Partly sunny.No wind79%N/AN/A
3:00 PM79 °FScattered showers. Partly sunny.6 mph89%N/AN/A
2:00 PM84 °FScattered showers. Partly sunny.2 mph70%N/A6 mi
1:00 PM79 °FPartly sunny.1 mph89%29.95 "HgN/A
12:00 PM75 °FBroken clouds.No wind94%29.98 "HgN/A
11:00 AM81 °FPartly sunny.6 mph74%30.01 "HgN/A
10:00 AM79 °FPartly sunny.7 mph79%30.04 "HgN/A
9:00 AM77 °FBroken clouds.No wind89%30.04 "HgN/A
8:00 AM75 °FBroken clouds.3 mph89%30.01 "HgN/A
7:00 AM73 °FScattered clouds.2 mph94%30.09 "HgN/A
6:00 AM73 °FFog.No wind94%29.89 "Hg3 mi
5:00 AM73 °FRain. Partly cloudy.2 mph94%29.95 "Hg2 mi
4:00 AM73 °FPassing clouds.No wind94%29.95 "HgN/A
Weather by CustomWeather, © 2015

See weather overviewHow to use our weather pages